Theta_e
267 267 267 267 267 267 267 267 268 268 268 268 268 268 269 269 269 269 269 270 270 270 270 270 270 270 270 270 271 271 271 271 271 271 271 271 273 274 275 276 277 277 277 277 278 278 278 278 278 279 278 278 279 279 279 279 279 279 279 279 279 280 280
266 266 266 266 266 266 266 267 267 267 267 267 268 268 268 268 268 268 268 269 269 269 269 269 269 270 270 269 269 270 270 271 271 271 271 271 271 271 273 274 276 277 277 277 277 277 278 278 278 278 278 278 278 279 279 279 279 279 278 278 278 279 280
265 265 265 265 266 266 266 266 266 266 266 267 267 267 267 267 267 267 268 268 268 268 267 268 268 269 269 268 268 269 269 269 269 270 270 271 271 270 271 272 274 276 276 277 277 277 277 278 278 278 278 278 278 278 279 279 279 278 278 278 278 278 279
265 265 265 265 265 265 265 266 266 266 266 266 266 266 267 267 267 267 267 267 267 267 266 266 267 267 267 267 267 268 268 268 268 268 268 269 270 270 270 270 272 274 276 276 277 277 277 277 277 277 278 278 278 278 278 278 278 278 278 278 278 277 278
264 264 264 265 265 265 265 265 265 265 266 266 266 266 266 266 266 266 266 266 266 266 265 265 266 266 266 266 266 267 267 267 267 267 267 268 268 269 269 270 270 272 274 276 276 276 277 277 277 277 277 277 277 277 278 278 278 278 278 278 277 277 277
264 264 264 264 264 265 265 265 265 265 265 265 265 265 265 265 265 265 265 265 265 265 265 265 265 266 266 265 265 266 266 266 267 267 267 267 267 268 268 269 269 270 272 275 276 276 276 277 277 277 277 277 277 277 277 277 277 277 278 277 277 277 277
264 264 264 264 264 264 264 264 264 265 265 265 265 265 265 265 265 265 265 265 265 266 265 265 265 265 265 265 265 265 265 265 265 265 266 266 266 266 266 267 268 269 270 272 275 276 276 276 276 276 277 277 277 277 277 277 277 277 277 277 277 277 276
263 263 264 264 264 264 264 264 264 264 264 265 265 265 265 265 265 265 265 265 265 265 265 265 264 264 265 265 265 265 265 264 264 264 265 265 265 265 265 266 267 267 268 270 273 275 276 276 276 276 276 276 277 277 276 276 276 276 277 277 276 276 276
263 263 263 264 264 264 264 264 264 264 264 264 264 264 264 264 264 264 264 264 264 264 264 264 264 265 265 265 265 265 265 264 264 264 265 265 265 265 266 266 266 267 268 269 271 274 275 276 276 276 276 276 276 276 276 276 276 276 276 276 276 276 276
263 263 263 263 263 264 264 264 264 264 264 264 263 263 263 263 263 263 263 263 264 264 264 264 265 265 265 265 265 265 265 265 265 265 265 265 266 266 266 266 267 267 268 269 270 272 274 275 276 276 276 276 276 276 276 276 276 276 276 276 276 276 276
263 263 263 263 263 263 263 264 264 264 264 264 263 263 263 263 263 264 264 264 264 265 265 265 266 266 266 266 266 266 266 266 266 265 265 266 266 266 267 267 267 268 268 269 269 271 273 275 275 276 276 276 276 276 276 276 276 276 276 276 275 275 275
262 263 263 263 263 263 263 264 264 263 264 264 264 265 265 265 265 265 265 265 265 266 266 266 267 267 267 267 267 267 267 267 266 266 266 266 266 266 267 267 268 268 268 268 269 269 271 274 275 275 275 276 276 276 276 276 276 276 276 276 275 275 275
262 262 262 262 262 263 263 263 263 263 263 264 264 265 266 266 266 266 266 266 266 267 267 267 268 268 268 268 267 267 267 267 267 267 266 266 266 266 267 267 268 268 269 269 269 269 270 272 274 275 275 275 275 275 276 276 276 276 276 276 275 275 275
262 262 262 262 261 262 263 263 263 263 263 264 265 265 266 266 266 266 266 267 267 268 268 268 268 268 268 268 268 268 267 267 267 267 267 266 266 266 266 267 268 268 269 269 270 270 270 271 272 274 275 275 275 275 275 275 276 276 275 275 275 275 274
262 261 262 261 261 261 262 262 262 262 263 264 265 265 266 266 266 266 267 267 268 268 268 268 268 268 268 268 268 268 268 267 267 267 267 267 266 266 266 267 267 268 269 269 269 270 270 271 271 273 274 275 275 275 275 275 275 275 275 275 275 274 274
261 261 261 261 261 261 262 262 262 262 263 264 265 265 266 266 267 267 268 268 268 268 268 268 268 268 268 268 268 268 268 268 268 268 267 267 267 267 267 267 267 268 269 269 269 270 270 271 271 272 273 274 275 275 275 275 275 275 275 275 275 274 274
261 261 261 261 261 260 261 262 262 263 264 264 265 266 266 266 267 267 267 268 268 268 268 268 268 268 268 268 269 269 269 269 269 268 268 267 267 267 267 267 268 268 269 270 270 270 271 271 271 272 273 274 274 275 275 275 275 275 275 275 274 275 274
261 261 261 260 260 260 261 261 262 262 263 264 265 266 266 266 266 267 267 267 268 268 268 268 268 269 269 269 269 269 269 269 269 269 268 268 268 268 268 268 268 268 269 270 270 271 272 272 272 273 273 274 275 275 275 275 275 275 275 274 274 274 274
261 261 261 260 260 260 260 261 262 262 263 264 265 266 266 266 266 266 267 267 268 268 269 269 269 269 269 270 270 270 270 270 269 269 269 268 268 268 268 269 269 269 269 270 270 271 272 272 273 273 273 274 275 275 275 275 275 275 275 275 274 274 274
261 260 260 260 260 260 260 261 261 262 263 264 265 266 267 266 266 266 267 267 268 269 270 270 270 270 270 270 270 270 270 270 269 269 269 269 269 269 269 270 270 270 270 270 271 271 272 272 273 273 274 274 274 275 275 275 275 275 275 275 274 274 274
260 260 260 260 260 260 260 260 261 262 263 264 265 266 267 266 266 267 267 268 269 269 270 270 270 270 270 270 270 270 270 269 269 270 270 270 270 270 270 271 271 271 271 271 271 272 272 273 273 273 274 274 274 275 275 275 275 275 275 275 275 274 274
260 259 260 260 260 259 260 260 260 261 262 264 264 266 266 266 267 268 268 269 269 270 270 270 270 270 269 269 270 270 269 270 270 270 271 271 271 271 271 272 272 272 272 271 271 272 272 272 273 273 273 273 274 274 275 275 275 275 275 275 275 275 274
260 259 259 260 259 259 259 260 260 261 262 263 264 265 266 266 267 268 269 269 270 271 270 270 270 269 269 269 270 270 270 270 271 271 271 272 272 272 272 273 273 273 272 272 272 272 272 272 273 273 273 273 274 274 275 275 275 275 276 275 275 275 275
259 258 258 258 259 259 259 259 260 261 263 264 264 265 266 266 267 268 269 269 270 270 270 270 269 269 269 270 270 270 271 271 271 272 273 273 273 273 273 274 274 273 273 272 273 273 273 273 273 273 273 273 274 275 275 275 275 276 276 275 275 275 275
259 258 257 258 258 258 259 259 260 262 263 264 264 264 265 266 266 267 268 269 269 269 269 269 269 269 270 270 270 271 271 272 272 273 273 274 274 274 274 275 275 274 273 273 273 273 273 273 273 273 273 273 274 274 275 275 275 276 275 275 275 275 275
258 258 257 257 257 257 258 259 260 261 263 264 264 264 264 265 266 266 267 269 269 269 269 269 270 270 270 270 271 271 271 272 273 273 273 274 274 275 275 275 275 274 274 274 273 273 273 273 273 273 273 273 273 274 275 275 275 275 275 275 275 275 275
258 257 257 256 257 257 258 259 260 261 263 264 263 263 264 265 265 265 266 268 269 269 269 269 270 270 270 271 271 271 272 272 272 272 273 274 275 275 275 275 275 274 274 274 274 274 273 273 273 273 273 273 273 274 274 274 275 275 275 275 275 275 275
258 257 257 256 256 257 258 258 259 260 262 263 262 262 263 264 265 265 265 267 268 268 269 269 270 270 270 270 271 271 271 271 272 272 273 273 274 275 275 275 275 274 274 274 274 273 273 273 273 273 273 273 273 273 274 274 274 275 275 275 275 275 275
257 258 257 256 257 257 257 257 258 260 262 263 263 263 264 264 264 264 264 266 266 267 268 269 270 270 270 270 270 270 271 271 271 271 272 272 273 274 274 274 274 274 274 274 273 273 273 273 272 272 272 272 272 272 273 273 274 274 274 274 275 275 275
258 258 258 257 258 258 257 257 258 260 262 263 263 264 264 264 264 264 264 266 266 267 268 269 269 269 269 269 270 270 270 270 270 270 271 272 272 273 273 274 274 274 274 274 273 273 273 273 272 272 272 271 271 272 272 273 273 274 274 274 274 274 274
259 259 259 259 258 258 258 258 259 260 262 263 263 264 264 264 264 263 264 265 266 267 267 267 267 267 267 268 268 269 269 270 270 270 270 271 271 272 272 273 274 274 274 274 273 273 273 273 273 272 272 272 271 271 271 272 273 274 274 274 274 274 274
259 259 260 260 259 259 259 259 260 260 261 262 262 262 263 263 263 263 264 265 266 266 266 266 265 265 266 266 266 267 268 269 270 270 270 270 270 271 271 272 272 273 273 274 273 273 273 273 273 273 272 272 272 271 271 272 273 274 274 274 274 274 274
259 259 259 260 260 260 260 260 260 260 260 260 260 260 261 263 263 263 264 265 266 265 265 265 265 264 264 264 264 265 266 267 268 269 270 270 270 271 271 271 272 272 272 273 273 273 273 273 273 273 272 272 272 271 271 271 272 274 274 274 274 274 274
260 259 259 259 260 260 260 260 260 260 259 258 258 259 260 262 263 264 264 265 264 264 264 264 264 264 263 263 263 263 264 265 266 268 270 270 270 271 271 271 271 272 272 272 273 273 273 273 273 273 272 272 272 271 271 271 272 273 274 274 274 275 275
259 259 259 259 259 259 259 259 259 259 258 257 257 258 260 262 264 264 264 264 263 263 263 262 262 262 262 263 263 263 263 264 265 267 269 270 271 271 271 271 272 272 272 272 272 273 273 273 273 273 272 272 272 272 271 272 272 273 274 274 275 275 275
258 259 259 259 259 259 259 259 259 258 257 257 257 258 260 261 261 262 262 261 261 262 262 261 261 261 262 262 263 263 264 264 264 266 268 269 271 271 271 272 272 272 272 272 272 272 273 273 273 273 273 272 272 272 272 272 273 274 274 274 274 275 275
Wind_Speed
37 37 38 38 39 39 39 39 38 38 38 39 39 39 39 39 39 39 39 39 39 38 38 38 39 39 38 37 38 40 40 41 40 40 41 43 43 41 37 36 39 42 51 53 42 40 48 49 47 47 46 45 44 43 42 39 37 36 34 33 32 32 33
39 39 39 39 39 39 39 39 39 38 38 39 39 39 39 39 39 40 40 40 40 39 38 39 40 40 39 38 39 40 40 41 41 40 41 42 44 46 44 39 38 41 47 50 44 41 44 46 47 50 48 47 47 45 43 41 39 37 35 34 33 33 34
40 40 40 40 40 40 40 40 39 39 39 39 40 40 40 39 39 40 40 40 40 39 38 39 40 40 40 39 39 41 41 41 42 41 42 43 42 44 46 44 40 40 45 49 47 42 39 37 42 48 48 46 46 45 43 42 41 38 36 36 34 33 34
40 40 41 41 41 41 41 41 40 40 40 40 40 41 41 40 40 40 40 40 40 39 39 39 40 40 39 38 39 41 41 40 41 41 42 44 44 44 46 47 43 41 44 47 48 44 38 33 36 44 48 45 44 45 44 43 43 40 38 38 36 34 35
40 41 41 41 42 42 42 41 41 41 41 40 40 41 41 41 41 40 39 39 39 38 37 37 38 38 36 35 37 39 39 39 39 40 40 43 45 45 45 46 45 43 42 46 49 46 39 36 33 35 44 46 42 42 44 42 43 42 40 39 38 36 36
40 40 41 42 42 42 42 41 41 41 41 41 41 41 41 40 40 39 39 38 37 35 34 34 36 36 35 35 36 38 38 37 37 38 38 39 43 43 42 44 45 46 44 43 47 47 42 41 36 31 38 47 43 39 41 42 43 43 42 41 40 39 37
41 41 41 42 42 41 42 42 42 42 42 42 41 41 40 39 38 38 37 36 35 33 33 34 36 37 37 37 38 38 38 38 37 38 38 38 39 38 38 40 42 46 48 45 45 47 44 44 43 36 34 41 43 40 39 40 42 44 44 41 41 40 38
42 42 42 42 42 42 42 42 42 42 42 42 41 40 38 37 36 36 35 35 35 35 36 37 39 40 40 40 40 40 40 40 40 40 40 38 37 36 37 38 39 41 44 44 44 46 45 44 44 42 35 33 38 41 39 36 34 38 42 41 40 41 39
42 43 43 42 42 42 42 42 42 42 41 41 40 38 38 37 36 37 37 38 39 41 42 42 43 44 44 44 44 44 43 42 40 38 38 39 38 37 37 37 37 36 36 39 43 44 45 43 42 43 38 33 39 46 44 35 28 33 41 40 39 43 42
42 42 42 43 43 43 42 42 42 41 40 38 36 36 37 37 38 39 40 43 44 44 45 45 46 46 46 46 46 46 45 43 41 40 41 43 41 40 39 37 36 35 33 36 40 41 43 44 44 44 38 34 43 48 45 40 34 35 40 36 34 41 43
42 42 42 42 43 43 43 43 41 40 38 36 32 31 32 36 39 40 42 43 44 45 45 45 46 46 47 48 48 48 48 47 46 46 45 46 46 45 45 44 42 41 38 37 39 40 41 43 46 49 41 34 39 42 39 42 42 39 38 34 34 38 41
41 42 42 42 43 43 43 42 41 38 36 32 29 27 30 34 39 41 41 43 43 44 44 45 46 46 47 49 49 48 48 48 48 48 46 46 46 46 47 48 48 48 45 43 41 41 42 42 45 50 46 40 41 40 37 39 42 41 39 38 37 36 37
42 42 42 42 42 43 43 42 40 36 32 29 28 28 30 33 37 39 41 42 42 42 43 45 47 48 48 48 49 48 48 48 48 47 46 45 44 44 44 45 47 49 49 49 46 45 46 45 44 46 48 46 43 41 40 41 42 41 39 39 39 37 36
43 43 43 42 41 42 43 41 37 33 30 28 28 29 31 33 37 39 40 41 42 43 45 47 49 51 50 49 49 48 48 48 47 47 46 45 44 46 45 43 44 46 48 50 50 50 52 51 48 47 47 46 43 41 41 42 42 39 37 38 40 39 38
43 43 43 41 40 40 41 38 33 30 29 29 29 30 32 34 36 37 38 40 42 44 47 49 50 52 52 50 49 48 47 47 47 46 46 45 45 46 47 46 44 43 44 46 49 52 54 54 52 50 47 45 45 44 44 43 41 39 39 39 39 40 41
43 43 42 40 38 37 38 36 32 29 29 30 30 31 33 35 36 38 40 42 44 47 49 51 52 52 51 50 48 46 44 44 44 45 46 45 45 46 48 49 46 43 41 42 44 48 51 54 54 53 49 47 46 44 43 42 41 40 39 39 40 41 42
44 42 40 39 36 34 36 36 33 31 31 30 30 31 33 36 39 42 45 46 48 50 52 53 52 51 49 48 47 44 42 40 40 43 45 46 46 46 47 49 47 44 42 41 42 43 46 49 53 54 51 48 48 48 45 41 41 41 39 39 39 41 42
43 41 38 36 34 33 35 37 35 32 32 31 30 31 34 39 43 46 48 51 52 53 54 54 53 50 47 46 44 41 39 36 36 39 42 44 45 45 46 47 46 44 42 40 40 41 41 44 50 54 52 48 47 49 48 46 45 43 41 40 41 42 42
41 40 37 34 33 33 35 37 36 34 32 31 30 30 35 41 45 48 52 55 56 55 53 50 48 47 43 41 39 36 34 31 32 35 39 41 42 43 44 44 43 43 42 41 39 39 38 39 42 47 50 49 46 45 45 45 45 44 43 42 43 44 41
38 38 36 33 33 34 35 36 37 35 33 31 31 32 36 41 47 51 55 57 57 55 51 44 39 38 36 33 31 30 29 28 30 34 37 38 39 41 42 41 40 40 40 40 39 36 35 34 35 37 42 46 46 44 43 43 43 43 43 43 43 44 41
37 37 36 34 35 37 37 37 39 38 34 32 32 34 38 44 49 52 54 56 54 50 46 39 33 32 31 26 23 23 24 25 28 32 34 36 38 41 41 40 39 39 37 38 38 35 33 32 32 34 37 39 42 42 41 41 42 42 42 42 43 42 41
37 38 38 37 38 39 39 40 41 39 36 34 35 36 40 45 47 47 50 52 47 41 37 33 32 32 28 22 19 20 20 22 25 28 30 33 35 39 39 37 36 36 36 36 36 34 32 31 30 31 34 36 38 37 37 38 40 41 40 39 39 39 38
37 39 40 41 42 42 42 42 42 40 37 35 37 40 43 45 43 44 47 45 37 33 32 31 31 29 23 18 17 18 19 21 24 27 29 31 33 35 35 32 31 33 35 35 33 32 31 31 30 29 29 32 34 34 34 36 38 39 38 35 33 32 32
39 40 43 45 46 46 45 44 43 40 36 35 40 44 45 44 43 43 43 38 32 31 30 29 29 25 19 17 18 19 21 23 24 25 26 26 27 29 30 27 27 31 34 33 31 31 30 30 29 28 27 29 31 30 31 35 36 35 35 33 31 28 26
40 41 43 45 46 48 47 45 43 41 36 36 42 46 46 45 42 41 40 35 31 29 26 25 24 20 17 17 17 18 20 20 17 17 18 20 20 22 23 22 25 31 33 31 30 30 30 29 28 26 24 26 29 29 29 32 33 33 31 29 27 27 26
40 41 44 45 44 45 46 44 42 40 36 38 45 49 49 46 41 39 38 33 29 27 23 21 19 18 17 17 16 16 16 14 12 13 15 16 14 14 16 19 25 30 32 31 29 29 28 27 25 23 22 24 27 28 28 28 29 30 27 23 23 26 28
39 42 44 43 41 41 42 42 41 37 35 40 46 49 49 43 38 38 38 32 28 27 24 20 18 16 16 16 14 13 13 12 12 12 12 11 8 9 12 16 22 24 24 24 24 25 25 24 23 23 23 24 28 31 30 27 27 27 25 23 23 25 28
39 41 40 39 38 38 39 39 38 35 35 40 44 46 44 38 34 36 35 28 24 24 22 19 17 15 14 13 12 11 12 12 13 13 11 10 5 7 12 13 14 16 17 18 19 20 21 21 21 22 23 25 28 32 32 30 28 27 26 25 25 25 27
36 36 35 34 33 34 35 37 37 33 32 36 38 40 38 32 29 32 30 22 19 19 18 17 15 13 13 13 12 12 12 13 14 14 12 10 7 3 11 14 13 14 16 18 18 18 18 17 18 19 20 22 25 29 30 31 30 29 29 28 27 26 27
29 29 30 30 29 28 29 31 32 29 28 31 34 35 33 27 24 26 26 19 16 16 15 15 16 16 16 15 14 14 14 13 13 14 12 9 8 3 5 11 13 15 16 16 16 15 15 16 16 16 17 19 22 25 28 30 30 30 30 30 29 27 26
25 25 25 26 26 26 25 25 26 25 25 28 32 32 29 24 21 23 23 19 17 17 17 18 20 21 21 19 17 16 15 13 12 12 11 8 6 4 2 6 11 15 16 16 15 15 15 16 16 16 16 18 21 24 26 28 31 32 31 29 29 28 26
26 26 25 23 23 24 24 23 24 24 23 26 31 31 27 22 20 21 22 20 18 20 22 23 25 26 26 25 22 19 16 14 12 11 9 7 6 6 5 5 8 12 15 16 16 16 15 15 16 16 16 17 20 22 24 26 31 34 32 30 29 28 25
27 28 28 25 23 23 23 22 22 22 23 27 32 31 26 21 19 20 21 20 20 23 25 25 27 28 28 29 28 24 18 14 12 10 9 7 6 6 6 6 8 10 12 13 14 14 14 13 13 15 17 18 20 21 24 27 31 33 33 30 28 27 25
30 29 29 28 27 26 24 22 21 22 24 28 30 29 25 22 18 17 19 21 24 27 26 26 27 28 29 30 31 29 23 17 12 10 8 7 7 7 6 6 7 11 13 14 13 13 12 11 11 13 15 18 19 20 23 28 31 32 31 29 27 26 26
35 32 30 30 29 28 27 24 23 23 24 26 27 26 25 23 21 21 22 24 26 27 27 27 28 28 29 30 31 31 29 23 16 11 7 6 8 8 8 7 7 10 14 16 15 14 13 12 12 13 14 16 19 20 22 28 32 32 32 31 27 24 25
38 35 32 29 29 28 27 26 25 24 23 23 24 24 25 26 27 28 28 28 28 28 28 28 28 28 28 29 29 30 30 28 22 15 9 3 4 8 9 9 9 9 12 16 17 16 15 14 12 12 14 17 20 20 21 27 33 33 32 32 29 23 22
Wind_Direction
317 316 315 315 314 314 314 313 312 311 310 307 306 305 304 303 302 300 299 298 296 295 295 293 291 288 287 285 282 278 275 273 270 266 261 255 252 253 255 258 257 257 262 266 263 262 267 267 266 268 268 267 269 271 271 272 274 277 278 273 265 257 250
319 318 317 316 316 315 314 313 312 311 309 307 306 305 305 304 303 301 300 299 297 296 296 293 290 288 288 288 284 281 279 277 274 271 267 262 256 253 252 254 257 257 260 263 261 261 265 264 262 265 266 265 266 268 268 269 271 273 274 273 266 259 252
319 318 317 316 315 314 314 313 312 311 309 308 307 306 304 303 302 301 300 299 297 296 296 293 291 289 288 289 286 283 281 280 278 276 272 268 262 257 253 251 254 257 259 261 261 258 258 257 257 260 263 264 265 266 266 266 268 269 270 270 266 259 253
319 318 317 316 315 314 314 312 311 310 308 308 306 305 304 303 302 300 299 297 296 296 295 293 291 289 289 289 286 283 282 280 279 278 277 273 268 262 257 252 252 255 258 260 261 258 252 251 254 257 260 261 262 263 263 264 266 267 267 268 267 261 256
318 317 316 316 315 314 313 312 311 309 307 307 306 304 303 302 301 300 298 296 295 294 293 292 290 289 289 289 286 284 283 282 279 277 277 275 272 269 264 256 251 251 255 258 258 257 254 252 251 253 257 258 258 258 259 261 263 264 265 266 266 264 259
317 316 315 314 314 313 312 311 309 307 307 306 305 303 302 301 300 299 297 294 293 291 291 291 291 290 292 292 290 289 287 286 285 282 279 276 274 273 271 264 254 248 250 255 256 256 256 253 249 249 253 254 253 253 255 257 260 261 262 263 263 263 260
317 316 315 314 313 312 311 309 308 306 306 305 305 304 302 301 299 296 294 292 291 291 292 294 296 295 296 295 293 292 292 290 289 286 284 281 278 278 276 270 261 250 247 251 254 255 253 252 252 249 248 250 251 251 252 254 255 257 258 258 259 260 260
318 316 315 314 313 312 310 309 307 306 306 305 305 304 302 300 299 297 296 296 296 297 298 299 298 296 295 294 292 292 291 290 289 287 285 283 281 281 279 275 270 260 251 249 252 252 251 251 252 249 246 245 245 245 247 245 245 249 253 255 257 261 261
317 316 315 314 313 312 310 307 306 306 307 307 307 306 305 303 303 302 302 301 301 300 300 299 298 296 295 293 292 291 290 289 285 281 279 280 279 279 278 275 270 264 257 251 250 250 249 248 247 247 244 240 240 242 243 240 237 244 251 253 256 260 262
317 316 316 315 313 311 309 307 307 307 308 308 307 305 301 298 297 297 296 296 296 294 294 294 293 292 291 290 289 287 285 282 277 272 269 269 269 268 267 265 261 259 256 253 250 250 248 245 243 244 241 238 242 244 243 240 239 243 248 249 251 256 260
317 317 316 315 313 311 310 308 308 309 309 307 305 301 297 294 294 294 293 292 293 292 291 290 288 286 286 285 284 282 281 280 277 275 271 267 263 260 258 257 256 255 255 254 252 251 250 246 243 244 242 239 241 241 239 241 241 242 243 242 243 248 254
319 318 317 316 313 312 311 310 310 311 309 305 303 301 299 298 298 297 295 293 292 291 290 289 287 286 285 284 284 283 281 280 279 277 275 271 267 262 257 254 253 253 252 252 252 252 251 248 245 245 242 239 240 238 237 241 240 239 240 239 240 242 249
320 319 318 317 315 313 312 311 312 312 308 304 304 303 300 299 297 295 294 294 293 292 292 293 293 291 289 287 286 284 281 279 278 277 277 274 270 264 260 255 252 251 250 250 250 250 250 247 246 245 242 238 238 238 237 238 238 237 238 239 239 240 247
322 321 320 319 318 315 312 312 313 313 309 307 307 304 302 301 298 296 295 296 298 298 297 297 296 294 292 290 287 283 280 277 275 274 273 272 268 264 262 259 255 252 250 249 248 247 249 248 244 245 244 240 237 237 235 236 236 236 238 240 241 244 250
323 322 321 320 319 317 313 313 316 315 311 311 310 307 305 303 302 301 301 300 300 300 299 298 297 294 292 290 287 283 280 276 273 271 270 268 266 263 261 261 259 255 252 250 248 246 248 248 244 243 244 241 237 237 236 236 238 240 243 244 244 247 250
324 323 322 321 321 320 315 314 317 317 313 313 311 309 308 309 309 309 308 306 304 302 301 299 297 293 290 288 285 283 280 275 271 268 266 265 265 263 261 260 260 257 253 251 250 248 247 246 242 239 241 240 237 236 235 237 239 241 242 240 239 241 244
325 324 324 323 324 325 320 316 319 320 316 314 313 313 315 316 316 315 312 310 308 306 303 300 296 293 290 285 284 283 280 273 267 265 263 263 263 262 260 260 260 259 256 252 251 251 249 245 241 237 239 241 239 237 235 234 235 238 237 234 231 233 238
326 324 325 325 327 329 325 321 321 321 318 316 316 319 322 321 319 317 314 312 312 309 305 300 296 293 289 285 283 282 278 271 265 262 261 261 260 259 258 259 260 260 259 255 252 251 249 246 241 237 238 239 239 238 236 233 234 237 235 231 229 231 235
328 324 325 328 330 330 330 327 325 323 322 321 321 323 326 323 319 317 315 314 314 313 311 306 298 292 289 286 283 280 276 271 264 260 259 260 260 259 258 259 260 259 258 257 255 253 251 248 242 237 236 237 237 237 235 233 235 236 234 231 230 231 232
330 326 327 331 332 331 333 332 329 328 327 327 327 327 329 326 321 318 316 315 314 314 313 309 300 295 294 290 283 277 274 270 264 260 259 259 258 258 259 260 261 260 256 254 255 255 253 248 241 234 233 235 237 237 237 235 235 234 233 231 230 230 230
333 330 329 332 334 333 334 335 334 333 333 333 333 331 331 330 324 320 318 317 316 314 311 307 304 304 304 298 286 278 273 267 261 257 258 258 257 258 260 261 261 260 255 251 251 253 252 246 239 232 230 231 233 235 236 235 233 233 233 231 230 230 230
336 334 333 334 335 335 336 337 337 337 338 338 338 337 335 332 328 325 326 324 318 311 307 304 305 309 308 300 289 282 274 266 260 259 260 260 258 258 261 262 259 255 250 247 247 247 245 242 238 234 232 230 230 233 235 233 231 233 234 234 235 235 233
339 338 336 335 334 335 337 338 338 339 339 340 343 343 340 336 332 333 337 336 325 313 308 306 308 312 311 304 297 291 283 277 274 274 273 269 261 257 259 260 253 245 243 243 242 239 237 236 237 236 232 228 227 231 234 231 230 232 234 234 235 236 237
341 339 338 337 334 335 337 338 338 340 341 343 348 347 342 339 338 337 340 341 334 324 315 309 311 315 312 304 298 292 290 288 283 280 278 275 267 260 259 255 241 233 234 235 233 231 231 232 234 235 232 225 222 226 229 226 225 227 231 232 232 233 236
341 339 338 337 335 334 335 337 338 339 341 346 350 348 344 342 341 339 337 338 337 334 326 318 319 320 311 302 297 294 298 300 295 288 285 282 273 264 258 245 226 222 224 225 226 228 229 230 232 233 231 223 219 223 226 222 218 220 225 229 231 233 236
341 340 339 337 334 331 331 335 338 339 342 349 351 348 344 342 341 338 336 334 334 337 336 333 333 333 327 320 313 311 314 316 313 309 301 290 274 255 243 227 214 214 217 219 223 226 227 230 232 231 228 221 217 219 219 214 211 213 216 218 220 226 231
341 340 337 333 330 328 329 334 339 340 343 350 350 345 342 341 341 341 338 334 333 335 337 337 337 336 337 336 329 322 320 318 319 324 323 312 284 239 222 217 211 209 210 213 218 222 226 230 231 228 224 219 216 218 219 214 206 205 208 211 214 222 229
340 338 335 332 328 328 330 334 339 341 344 347 345 341 339 340 344 344 342 339 339 336 329 329 333 333 338 347 350 344 340 341 343 346 352 354 326 231 206 196 195 198 201 207 214 218 223 227 226 224 221 217 215 219 221 219 213 209 212 217 218 222 228
336 335 334 331 328 330 332 333 336 340 342 342 341 339 338 340 346 347 344 343 347 341 327 324 335 343 344 349 355 356 355 356 355 354 359 10 3 239 195 183 183 192 200 207 212 215 218 221 222 223 222 219 217 217 219 220 220 217 217 218 219 221 225
337 334 334 331 329 333 334 331 333 337 339 341 341 338 336 339 345 348 346 346 352 354 346 345 356 2 1 357 355 354 352 349 348 347 347 356 4 359 195 196 201 202 200 204 210 213 216 220 221 222 221 218 217 215 214 214 215 215 214 215 217 219 221
341 338 336 333 334 337 334 332 336 339 340 343 343 338 337 343 351 355 355 357 7 14 16 16 16 13 10 4 357 352 348 342 335 335 333 328 331 332 278 222 214 210 207 210 215 219 224 229 229 225 220 216 215 213 210 206 206 208 210 211 214 216 217
346 343 341 338 341 341 337 337 343 344 343 348 347 341 340 347 358 4 2 2 17 28 29 28 28 24 19 13 4 355 347 340 329 322 317 307 296 288 279 252 226 218 217 219 223 226 231 236 238 233 225 219 217 213 206 201 201 203 204 206 210 213 214
351 348 344 344 347 347 341 341 346 348 350 353 350 345 343 348 2 11 5 3 17 29 28 28 28 26 24 21 15 7 356 345 332 316 301 286 273 269 263 252 238 227 221 219 219 221 225 231 238 238 229 221 219 214 205 201 201 199 198 202 208 211 211
352 352 349 348 350 351 349 349 353 356 357 355 351 347 347 351 2 12 13 15 22 25 24 24 24 22 21 22 20 17 12 2 348 329 301 271 256 253 251 246 238 229 224 220 216 217 223 229 236 239 228 217 215 211 203 201 200 195 190 194 201 207 211
348 351 352 351 351 352 352 355 360 2 359 356 352 350 351 356 4 10 14 19 23 23 21 21 20 19 18 18 19 21 21 19 13 0 330 278 249 240 240 247 248 237 230 226 224 227 234 239 242 240 227 213 210 208 202 201 201 196 190 190 192 197 202
344 346 349 351 352 351 352 357 1 2 0 359 357 357 0 7 12 13 14 17 20 21 20 20 18 17 16 15 16 20 23 26 28 29 24 350 257 241 239 245 254 251 236 228 229 235 240 245 249 243 227 214 210 207 203 202 201 198 196 195 192 189 189